TELSTAR 14R

Last updated on Mon Jul 07 2025 00:02:44 GMT+0000 (Coordinated Universal Time)

1 37602U 11021A 25187.55169605 -.00000263 00000+0 00000+0 0 9993 2 37602 0.0311 279.8954 0002778 152.4963 347.9806 1.00270488 52366
UTC large
Height (km)
Speed (km/s)
/
Latitude / Longitude
Inclination (degrees)
Orbital Period (minutes)
Azimuth
Elevation
Range (km)
Doppler Factor

Next 0 passes for location: London (51.5072 / 0.1276)

Sorry there are no passes over London.